Location: Beulah
(33.1426°N, 83.0557°W)
Time: 03:55:19
(UTC+00:00)

Envisat - Pass Details

Date: 07 December 2021
Orbit: 764 x 766 km, 98.2° (Epoch: 23 January)

Event Time Altitude Azimuth Distance (km) Brightness Sun altitude
Rises 10:23:53 0° 13° (NNE) 3,236 6.3 -24.2°
Reaches altitude 10° 10:26:12 10° 14° (NNE) 2,306 5.5 -23.7°
Maximum altitude 10:31:17 83° 102° (ESE) 774 3.0 -22.7°
Drops below altitude 10° 10:36:21 10° 191° (S) 2,291 5.5 -21.7°
Sets 10:38:38 0° 192° (SSW) 3,213 6.3 -21.2°
